Temperature
14 14 14 14 13 13 13 13 13 13 12 12 12 12 12 12 12 12 11 11 11 11 11 11 11 11 11 10 10 10 10 10 10 10 10 10 9 9
14 14 14 14 13 13 13 13 13 13 12 12 12 12 12 12 12 11 11 11 11 11 11 11 10 10 10 10 10 10 10 10 10 10 9 9 9 9
14 14 14 14 13 13 13 13 13 13 12 12 12 12 11 11 11 11 11 11 11 11 11 10 10 10 10 10 10 10 9 9 9 9 9 9 9 9
13 13 13 13 13 13 13 13 13 13 12 12 12 12 11 11 11 11 11 11 11 11 10 10 10 10 10 10 9 9 9 9 9 9 9 9 8 8
13 13 13 13 13 13 13 13 13 12 12 12 12 11 11 11 11 11 11 11 10 10 10 10 10 10 10 9 9 9 9 9 9 9 8 8 8 8
13 13 13 13 13 13 13 13 12 12 12 12 12 11 11 11 11 11 11 10 10 10 10 10 10 9 9 9 9 9 9 9 8 8 8 8 8 8
13 13 13 13 13 13 13 12 12 12 12 12 11 11 11 11 11 10 10 10 10 10 10 10 9 9 9 9 9 8 8 8 8 8 8 8 7 7
13 13 13 13 12 12 12 12 12 12 12 12 11 11 11 11 11 10 10 10 10 10 9 9 9 9 9 9 8 8 8 8 8 8 7 7 7 7
13 13 13 12 12 12 12 12 12 11 11 11 11 11 11 11 10 10 10 10 9 9 9 9 9 9 9 8 8 8 8 8 7 7 7 7 7 7
12 12 12 12 12 12 12 12 12 11 11 11 11 11 10 10 10 10 10 9 9 9 9 9 8 8 8 8 8 8 7 7 7 7 7 6 6 6
12 12 12 12 12 12 12 11 11 11 11 11 10 10 10 10 10 10 9 9 9 9 8 8 8 8 8 8 7 7 7 7 6 6 6 6 6 6
12 12 12 12 12 11 11 11 11 11 11 10 10 10 10 10 9 9 9 9 9 8 8 8 8 7 7 7 7 7 7 6 6 6 6 6 6 5
12 12 12 11 11 11 11 11 11 11 10 10 10 10 10 9 9 9 9 8 8 8 7 7 7 7 7 6 7 7 6 6 6 6 6 5 5 5
11 11 11 11 11 11 11 10 10 10 10 10 10 10 10 9 9 9 8 8 8 7 7 7 6 6 6 6 6 6 6 6 6 5 5 5 5 5
11 11 11 11 10 10 10 10 10 10 10 10 9 9 9 9 8 8 8 8 7 7 7 6 6 6 6 6 5 5 5 5 5 5 5 5 5 5
10 10 10 10 10 10 10 10 10 9 9 9 9 9 9 8 8 8 8 7 7 7 6 6 6 6 6 5 5 5 5 5 5 5 4 4 4 4
10 10 10 10 10 10 9 9 9 9 9 9 9 8 8 8 8 7 7 7 7 7 6 6 6 5 5 5 5 5 5 4 4 4 4 4 4 4
10 10 10 10 9 9 9 9 9 9 8 8 8 8 8 8 7 7 7 6 6 6 6 6 5 5 5 5 5 4 4 4 4 4 3 3 4 4
9 9 9 9 9 9 9 8 8 8 8 8 8 7 7 7 7 6 6 6 6 6 5 5 5 4 4 4 4 4 4 4 3 3 3 3 3 3
9 9 9 8 8 8 8 8 8 8 7 7 7 7 7 6 6 6 6 6 5 5 5 4 4 4 3 3 3 3 3 3 3 3 3 3 3 3
8 8 8 8 8 8 8 7 7 7 7 7 7 7 6 6 6 6 5 5 5 4 4 4 4 3 3 3 3 3 3 3 2 2 2 2 2 2
8 8 7 7 7 7 7 7 7 7 7 7 6 6 6 5 5 5 5 5 4 4 4 4 3 3 3 2 2 2 2 2 2 2 2 1 1 1
7 7 7 7 7 6 6 6 6 6 6 6 6 6 5 5 5 5 4 4 4 3 3 3 3 2 2 2 2 2 2 2 2 2 2 2 1 1
Wind_Speed
1 2 1 0 1 1 2 3 4 2 0 1 1 1 1 2 2 4 4 5 5 5 6 6 6 6 6 6 6 7 7 7 6 6 6 6 6 6
1 2 1 1 1 1 2 1 2 3 2 1 1 1 1 2 3 4 4 4 5 5 5 6 6 6 6 6 5 5 5 5 5 6 6 5 6 6
1 2 1 1 2 1 2 2 2 3 3 0 1 1 2 2 3 4 4 3 3 4 4 4 4 5 5 5 5 5 5 5 5 5 5 5 5 5
2 2 1 2 2 2 2 2 2 2 3 2 0 1 1 1 2 3 3 2 2 2 3 3 3 4 4 4 4 5 5 5 5 5 4 4 5 5
2 3 2 3 2 1 2 2 2 2 2 3 2 1 1 1 2 2 2 2 2 1 1 1 2 2 3 3 3 3 4 4 4 4 4 4 4 4
2 2 3 4 4 3 2 2 3 3 3 3 2 1 1 1 2 1 1 1 1 2 2 2 2 2 2 2 2 3 2 2 3 3 3 3 4 4
2 2 2 4 4 4 3 4 4 4 4 3 2 2 1 1 1 1 1 0 1 1 2 2 2 2 3 2 2 1 2 2 2 2 3 3 3 4
2 1 1 2 3 4 5 6 6 5 5 4 2 2 2 2 1 2 2 1 1 1 1 1 1 1 2 2 1 1 1 1 2 2 3 3 3 4
3 2 2 2 3 2 3 4 4 4 5 5 4 3 3 3 3 3 2 2 2 1 1 1 1 1 2 2 2 2 1 2 2 3 3 3 3 3
3 3 3 1 2 4 3 3 2 1 3 3 4 4 3 4 4 4 3 2 0 0 1 1 1 1 2 3 3 2 2 2 3 3 3 3 3 3
2 3 3 3 3 6 5 3 1 1 1 3 3 2 2 4 5 4 3 2 0 1 1 1 1 1 2 2 3 3 2 3 3 3 3 3 4 4
2 2 4 4 4 6 5 4 3 3 1 1 1 0 1 3 5 4 4 3 1 2 2 2 1 0 2 2 2 3 3 3 4 4 5 4 4 3
3 3 3 5 5 6 6 5 6 4 2 2 1 1 1 1 1 2 3 4 3 3 3 3 2 1 1 2 2 3 3 3 3 4 5 5 5 3
4 3 3 5 5 5 4 5 5 4 2 2 2 1 1 2 2 2 3 3 3 3 4 4 2 3 2 2 3 2 3 3 3 3 4 5 5 6
4 5 5 5 4 3 4 4 4 3 3 2 3 3 2 2 1 1 1 1 0 1 2 4 3 2 3 3 3 2 2 3 3 3 3 4 4 4
2 2 3 3 2 3 2 2 2 3 4 4 3 2 1 1 1 1 1 1 0 1 2 2 3 3 3 3 3 4 3 3 2 3 4 4 5 5
3 2 1 1 1 1 1 1 2 2 3 2 3 2 2 2 1 1 1 1 2 2 2 2 2 3 3 3 3 4 4 3 3 2 2 4 5 6
5 3 3 3 3 3 3 2 2 3 3 3 3 3 3 3 2 1 2 2 3 3 2 1 0 1 2 3 6 4 3 4 3 3 3 4 6 6
4 3 4 4 4 4 4 3 3 3 3 3 3 3 3 3 2 2 2 2 3 3 3 2 1 1 2 5 4 5 4 4 3 3 4 4 6 7
3 3 4 4 4 4 4 4 3 3 3 3 3 3 3 3 3 3 3 3 3 3 2 2 3 4 5 5 4 4 7 5 4 5 5 5 6 8
4 3 3 3 3 3 3 4 4 4 4 4 4 4 4 4 4 4 4 5 4 3 4 5 6 6 3 1 3 4 4 7 8 5 4 4 5 5
4 4 4 4 4 4 3 3 3 4 4 4 4 4 4 4 5 5 4 4 4 5 5 4 2 2 2 4 6 6 6 6 7 9 9 8 4 4
4 4 3 3 3 3 3 4 4 3 3 3 4 4 4 4 4 4 4 4 4 5 4 4 2 2 4 5 6 6 7 7 5 5 6 10 13 14
Wind_Direction
135 134 129 140 136 155 156 152 144 137 312 307 324 359 37 78 83 91 89 81 77 71 68 64 61 69 76 72 67 61 56 53 47 47 50 43 41 38
139 128 121 118 114 118 140 141 147 150 167 255 249 321 52 87 91 97 91 78 76 75 74 66 63 70 77 76 70 62 58 50 42 42 41 36 35 35
149 139 138 119 116 111 115 121 126 133 152 234 40 41 65 73 72 80 81 76 72 71 67 63 65 73 77 78 72 66 58 48 42 37 35 33 30 26
179 151 160 129 117 112 118 121 129 139 147 159 103 44 61 92 88 82 78 86 76 60 67 70 73 72 77 76 68 63 59 51 42 36 32 25 19 23
176 166 165 137 131 120 124 126 123 118 120 141 150 102 71 93 84 69 67 52 54 37 44 55 66 64 67 68 65 61 54 47 41 37 31 23 21 19
156 153 157 163 168 161 144 140 129 116 113 119 120 97 88 100 106 112 68 41 28 29 32 45 65 62 51 49 54 49 39 32 22 18 18 16 10 1
139 150 159 164 165 160 150 147 139 132 128 125 127 112 112 133 182 181 164 58 7 27 36 20 34 30 13 8 7 12 16 14 4 359 355 353 349 344
152 134 132 132 147 148 143 139 141 146 154 147 148 162 195 198 164 154 149 98 321 341 101 357 37 358 334 340 340 339 333 333 340 343 344 349 349 342
160 152 138 127 127 124 124 126 137 146 154 155 158 185 193 199 168 161 168 165 213 260 131 309 353 317 321 326 323 314 312 322 326 328 327 330 342 343
166 163 163 178 150 143 130 112 114 150 178 168 181 193 190 180 174 175 175 154 139 22 129 215 288 286 317 310 318 306 294 297 299 304 308 310 317 319
194 174 177 194 183 158 143 145 154 272 207 192 193 187 173 161 151 125 126 127 247 275 184 184 250 280 293 291 305 316 290 285 288 291 296 297 301 301
214 210 196 195 190 170 166 167 189 231 193 143 125 93 120 149 161 161 167 162 175 249 220 179 208 227 301 294 310 316 305 289 287 289 293 288 291 296
209 221 223 209 203 191 180 188 206 194 169 163 147 107 90 110 158 179 177 176 181 221 201 171 190 198 227 284 302 296 290 288 289 288 290 287 284 276
211 215 216 208 205 200 195 201 195 169 146 147 155 184 204 217 221 204 199 206 212 219 202 179 187 193 200 254 273 289 292 282 276 288 292 294 284 278
210 202 197 197 192 197 201 192 165 156 160 176 204 221 221 217 174 135 109 146 276 279 220 204 200 199 204 227 246 258 279 278 268 279 287 284 275 280
194 183 173 165 160 177 179 183 177 182 184 199 209 210 176 163 178 169 175 175 174 306 303 263 233 199 220 238 241 257 255 264 276 279 279 279 277 266
152 123 119 139 159 177 193 192 188 184 197 192 183 184 192 192 204 184 172 161 190 248 286 315 311 268 236 225 245 254 259 269 269 268 276 286 276 269
145 164 188 195 201 200 201 211 208 209 206 194 189 192 199 205 212 198 188 194 219 239 247 256 340 1 336 281 231 242 253 263 275 272 259 272 283 279
159 191 202 207 210 208 204 203 213 218 205 196 200 203 205 208 207 209 209 220 234 243 247 228 203 198 268 285 277 222 237 264 269 269 261 259 273 283
190 204 217 218 214 212 211 211 214 209 204 207 209 209 206 205 209 215 216 223 236 247 253 236 223 224 236 259 269 268 243 244 254 268 274 276 276 284
211 216 219 219 220 219 217 212 209 213 211 207 212 214 210 205 215 220 221 228 232 240 247 251 248 243 243 256 279 282 273 255 251 258 267 279 289 290
213 215 218 217 216 217 214 210 213 217 215 216 216 214 211 210 219 221 220 223 230 238 251 262 257 226 215 242 264 276 287 294 278 268 258 251 254 262
216 211 210 211 213 210 211 212 215 224 223 217 215 215 213 217 224 227 229 231 237 244 252 264 259 238 241 248 263 276 283 292 297 295 283 271 266 269
Height
1546 1546 1545 1545 1545 1545 1545 1545 1545 1544 1545 1545 1546 1546 1546 1546 1547 1547 1547 1547 1547 1547 1546 1546 1546 1545 1545 1544 1544 1543 1543 1542 1542 1541 1541 1541 1540 1539
1545 1545 1545 1545 1545 1545 1545 1544 1545 1545 1545 1545 1546 1546 1546 1547 1547 1547 1547 1547 1547 1547 1547 1546 1545 1545 1544 1544 1543 1543 1542 1542 1541 1540 1540 1540 1539 1538
1544 1544 1544 1544 1544 1544 1544 1544 1544 1544 1544 1545 1545 1546 1546 1546 1547 1547 1547 1547 1547 1547 1546 1546 1545 1545 1544 1544 1543 1542 1542 1541 1540 1540 1539 1538 1538 1537
1543 1543 1543 1543 1543 1543 1543 1543 1543 1543 1543 1543 1544 1545 1545 1546 1546 1546 1546 1546 1546 1546 1546 1545 1545 1544 1544 1543 1542 1541 1540 1540 1539 1538 1538 1537 1536 1535
1541 1541 1541 1541 1541 1542 1542 1542 1542 1543 1543 1543 1543 1544 1544 1545 1545 1545 1545 1545 1545 1545 1545 1544 1544 1543 1542 1542 1541 1540 1539 1539 1538 1537 1536 1535 1534 1534
1540 1540 1540 1540 1540 1541 1541 1541 1541 1541 1542 1542 1542 1542 1543 1543 1544 1544 1544 1544 1544 1544 1544 1543 1543 1542 1541 1541 1540 1539 1538 1537 1536 1535 1534 1533 1533 1532
1539 1539 1539 1539 1539 1539 1540 1540 1540 1540 1540 1540 1541 1541 1542 1542 1542 1542 1542 1542 1542 1542 1542 1542 1541 1541 1540 1539 1538 1537 1536 1536 1535 1534 1533 1532 1531 1530
1537 1537 1538 1538 1538 1538 1538 1539 1539 1539 1539 1539 1539 1540 1540 1540 1540 1540 1540 1540 1540 1541 1540 1540 1539 1539 1538 1537 1536 1535 1535 1534 1533 1531 1530 1529 1529 1528
1536 1536 1536 1536 1537 1537 1537 1537 1537 1537 1538 1538 1538 1538 1538 1538 1538 1538 1538 1538 1538 1538 1538 1537 1537 1537 1536 1535 1534 1533 1532 1531 1530 1529 1528 1527 1526 1525
1534 1535 1535 1535 1535 1536 1536 1536 1536 1536 1536 1536 1536 1537 1537 1537 1537 1537 1536 1536 1536 1536 1536 1535 1534 1534 1533 1533 1532 1531 1530 1529 1527 1526 1526 1525 1523 1522
1532 1533 1533 1534 1534 1534 1534 1534 1535 1535 1535 1535 1535 1535 1535 1535 1535 1534 1534 1534 1533 1533 1533 1532 1531 1531 1530 1529 1529 1528 1527 1526 1525 1524 1523 1522 1520 1519
1530 1530 1531 1531 1532 1532 1532 1532 1532 1533 1533 1533 1533 1533 1533 1532 1532 1532 1532 1531 1531 1530 1530 1530 1529 1528 1527 1526 1525 1525 1523 1522 1522 1521 1519 1518 1517 1516
1527 1527 1528 1529 1529 1529 1530 1530 1530 1530 1530 1530 1530 1530 1530 1530 1530 1529 1529 1529 1528 1528 1528 1527 1526 1525 1524 1523 1522 1521 1520 1519 1518 1517 1516 1515 1513 1512
1523 1524 1525 1525 1526 1526 1527 1527 1527 1527 1527 1527 1527 1527 1527 1527 1527 1526 1526 1526 1525 1525 1524 1524 1523 1522 1521 1519 1518 1517 1517 1516 1514 1513 1512 1511 1509 1508
1520 1521 1521 1522 1522 1523 1523 1524 1524 1524 1524 1524 1524 1524 1524 1524 1523 1523 1523 1522 1522 1521 1521 1520 1519 1518 1517 1516 1514 1513 1512 1511 1511 1509 1508 1506 1505 1503
1516 1516 1517 1517 1518 1519 1519 1520 1520 1520 1520 1520 1520 1520 1520 1520 1519 1519 1519 1518 1518 1517 1517 1516 1515 1514 1513 1512 1511 1509 1508 1507 1506 1505 1503 1502 1500 1499
1511 1512 1513 1513 1514 1514 1515 1515 1516 1516 1516 1516 1516 1516 1516 1516 1516 1515 1515 1514 1514 1513 1512 1512 1511 1510 1509 1508 1506 1505 1504 1503 1502 1500 1498 1496 1496 1494
1507 1507 1508 1509 1509 1510 1510 1511 1511 1511 1511 1511 1511 1511 1511 1511 1511 1511 1511 1510 1509 1509 1508 1507 1507 1505 1504 1503 1503 1501 1499 1498 1497 1495 1494 1491 1489 1489
1502 1503 1503 1504 1505 1505 1505 1506 1506 1507 1507 1507 1506 1506 1507 1507 1507 1507 1506 1506 1505 1504 1504 1503 1502 1501 1499 1497 1497 1497 1495 1493 1492 1490 1488 1486 1484 1483
1497 1498 1499 1499 1500 1500 1501 1501 1501 1502 1502 1502 1502 1502 1502 1502 1502 1502 1501 1501 1500 1500 1499 1498 1497 1496 1495 1494 1492 1491 1491 1489 1486 1484 1483 1481 1479 1477
1492 1493 1494 1495 1495 1496 1496 1496 1497 1497 1497 1497 1497 1497 1497 1497 1497 1497 1496 1496 1495 1495 1494 1493 1492 1492 1490 1489 1487 1485 1485 1484 1482 1480 1477 1475 1473 1471
1488 1488 1489 1490 1490 1491 1491 1491 1492 1492 1492 1492 1492 1492 1492 1492 1491 1491 1491 1491 1490 1489 1489 1488 1487 1486 1485 1484 1481 1480 1479 1478 1477 1475 1473 1472 1469 1465
1483 1483 1484 1485 1486 1486 1486 1486 1486 1487 1487 1487 1487 1487 1486 1486 1486 1486 1486 1485 1485 1484 1483 1482 1481 1481 1479 1478 1477 1475 1473 1472 1470 1468 1467 1466 1465 1462